Regional Weather Roundup
Issued by NWS Newport/Morehead, NC

Current Version | Previous Version | Graphics & Text | Print | Product List | Glossary Off
Versions: 1 2 3 4 5 6 7 8 9 10 11 12 13 14 15 16 17 18 19 20 21 22 23 24 25 26 27 28 29 30 31 32 33 34 35 36 37 38 39 40 41 42 43 44 45 46 47 48 49 50
435 ASUS42 KMHX 291325 RWRMHX WEATHER ROUNDUP FOR EASTERN NORTH CAROLINA NATIONAL WEATHER SERVICE NEWPORT/MOREHEAD CITY NC 900 AM EDT THU SEP 29 2016 NOTE: "FAIR" INDICATES FEW OR NO CLOUDS BELOW 12,000 FEET WITH NO SIGNIFICANT WEATHER AND/OR OBSTRUCTIONS TO VISIBILITY NCZ015>017-031-032-045>047-102-103-291400- NORTH COAST CITY SKY/WX TMP DP RH WIND PRES REMARKS EDENTON CLOUDY 77 77 100 NE6 30.05R ELIZABETH CITY CLOUDY 77 74 90 NE6 30.05R KITTY HAWK MOSUNNY 80 78 94 CALM 30.03S MANTEO MOSUNNY 79 74 84 E9 30.04S $$ NCZ045>047-081-094-103-104-291400- CENTRAL COAST CITY SKY/WX TMP DP RH WIND PRES REMARKS FRISCO MOSUNNY 78 72 81 E6 30.02R $$ NCZ095-097-098-100-101-291400- SOUTHERN COAST CITY SKY/WX TMP DP RH WIND PRES REMARKS BEAUFORT CLOUDY 80 75 84 E3 30.01R CEDAR ISLAND NOT AVBL JACKSONVILLE CLOUDY 73 70 90 N6 29.99R PINEY ISLAND NOT AVBL WILMINGTON CLOUDY 78 73 84 CALM 29.99R $$ NCZ011>013-027>030-043-044-078>080-089-090>093-098-291400- COASTAL PLAIN CITY SKY/WX TMP DP RH WIND PRES REMARKS AHOSKIE FOG 70 70 99 CALM 30.06R VSB 1 CLINTON RAIN 67 67 100 E5 30.03R ELIZABETHTOWN HVY RAIN 67 67 100 CALM 30.01R VSB 1/2 GOLDSBORO HVY RAIN 68 68 100 N9 30.04R FOG GREENVILLE CLOUDY 72 72 100 N7 30.06R HAVELOCK PTSUNNY 77 74 90 E3 30.02R KENANSVILLE LGT RAIN 66 66 100 N8 30.03S KINSTON CLOUDY 72 68 88 N13 30.02R FOG NEW BERN MOSUNNY 75 73 93 E6 30.03R RICHLANDS CLOUDY 70 67 90 NW6 30.02R ROCKY MOUNT LGT RAIN 67 66 97 E7 30.03R WASHINGTON SUNNY 73 71 95 N7 30.04R WHITEVILLE HVY RAIN 69 68 96 NE7 30.03R $$ AMZ130-135-150-152-154-156-158-170-250-252-270-ANZ085-086-088-633-658-670-291400- MARINE OBSERVATIONS STATION/POSITION TIME TEMP WIND PRES WAVE SWELL AIR SEA DIR/SP/G HT/PER HT/PER (UTC) (F) (DEG/KT/KT) (MB) (FT/S) (FT/S) CHESAPEAKE LIGHT NOT AVBL 64 E VA BEACH 1250 76 73 80/ 6/ 6 1017.5 6/ 8 5/ 8 DUCK 1300 77 76 60/ 7/ 9 1016.9 2 E DUCK 1241 76 N/A 4/ 7 2/12 OREGON INLET 1300 77 77 50/ 7/ 10 1017.0 13E OREGON INLT 1300 77 N/A 4/ 7 3/ 7 HATTERAS CG 1300 78 78 60/ 5/ 6 1016.4 DIAMOND BUOY 1250 79 81 30/ 6/ 8 1016.2 3/11 3/11 CAPE LOOKOUT 1300 79 100/ 4/ 5 1016.0 BEAUFORT LAB 1300 79 77 90/ 4/ 6 1015.7 30 SE NEW RVR IN 1308 82 83 170/ 8/ 12 1015.5 30 SE NEW RVR IN 1255 83 N/A 3/11 2/11 27 SE WRIGHTSVLE 1308 80 81 200/ 8/ 12 1015.6 5 SE WRIGHTSVLE NOT AVBL 225 S CAPE HAT 1250 80 83 190/ 8/ 8 1017.2 4/ 5 3/ 5 41 SE CHARLESTON 1250 75 82 130/ 21/ 27 1014.4 3/11 2/11 $$

USA.gov is the U.S. government's official web portal to all federal, state and local government web resources and services.